Gulfport, MS

6:30 AM CDT on October 20, 2017 (GMT -0500)
Gulfport-Biloxi Regional

Weather History for KGPT - January, 2014

Change the Weather History Date:

Tuesday, January 7, 2014

  Actual Average Record
Temperature  
Mean Temperature 28 °F -  
Max Temperature 37 °F 62 °F 80 °F (1982)
Min Temperature 19 °F 45 °F 19 °F (2014)
Degree Days  
Heating Degree Days 37    
Moisture  
Dew Point 7 °F    
Average Humidity 45    
Maximum Humidity 68    
Minimum Humidity 25    
Precipitation  
Precipitation 0.00 in - - ()
Sea Level Pressure  
Sea Level Pressure 30.59 in    
Wind  
Wind Speed 5 mph (North)    
Max Wind Speed 10 mph    
Max Gust Speed -    
Visibility 10 miles    
Events      
Averages and records for this station are not official NWS values.
T = Trace of Precipitation, MM = Missing Value Source: NWS Daily Summary

Daily Weather History Graph

Daily Weather History Graph

Search for Another Location

Airport or City:

Trip Planner

Search our weather history database for the weather conditions in past years. The results will help you decide how hot, cold, wet, or windy it might be!

Date:

Astronomy

Jan. 07, 2014 Rise Set
Actual Time 6:54 AM CST 5:11 PM CST
Civil Twilight 6:27 AM CST 5:37 PM CST
Nautical Twilight 5:58 AM CST 6:07 PM CST
Astronomical Twilight 5:28 AM CST 6:36 PM CST
Moon 11:13 AM CST (1/7) No Moon Set
Length of Visible Light 11h 09m
Length of Day
10h 17m
Waxing Crescent, 46% of the Moon is Illuminated
Jan 7
Waxing Crescent
Jan 7
First Quarter
Jan 15
Full
Jan 23
Last Quarter
Jan 30
New

Hourly Weather History & Observations

Time (CST) Temp. Windchill Dew Point Humidity Pressure Visibility Wind Dir Wind Speed Gust Speed Precip Events Conditions
12:53 AM 24.1 °F 17.0 °F 5.0 °F 44% 30.60 in 10.0 mi NNW 5.8 mph - N/A   Clear
1:53 AM 23.0 °F 17.0 °F 6.1 °F 48% 30.61 in 10.0 mi NNW 4.6 mph - N/A   Clear
2:53 AM 21.9 °F 15.7 °F 8.1 °F 55% 30.62 in 10.0 mi WNW 4.6 mph - N/A   Clear
3:53 AM 21.0 °F 16.2 °F 10.9 °F 65% 30.61 in 10.0 mi NW 3.5 mph - N/A   Clear
4:53 AM 19.9 °F 14.9 °F 10.0 °F 65% 30.61 in 10.0 mi NW 3.5 mph - N/A   Clear
5:53 AM 19.0 °F 13.9 °F 10.0 °F 68% 30.63 in 10.0 mi NNW 3.5 mph - N/A   Clear
6:53 AM 19.9 °F 12.1 °F 7.0 °F 57% 30.64 in 10.0 mi North 5.8 mph - N/A   Clear
7:53 AM 21.9 °F 14.5 °F 8.1 °F 55% 30.66 in 10.0 mi North 5.8 mph - N/A   Clear
8:53 AM 24.1 °F 13.7 °F 1.9 °F 38% 30.66 in 10.0 mi NNE 10.4 mph - N/A   Clear
9:53 AM 27.0 °F 19.5 °F 1.0 °F 33% 30.67 in 10.0 mi Variable 6.9 mph - N/A   Clear
10:53 AM 30.0 °F 23.2 °F -0.0 °F 28% 30.64 in 10.0 mi Variable 6.9 mph - N/A   Clear
12:53 PM - - - N/A% - - North - - N/A   Unknown
1:53 PM 37.0 °F 31.0 °F 3.9 °F 25% 30.55 in 10.0 mi NNW 8.1 mph - N/A   Clear
2:53 PM 37.0 °F 31.6 °F 3.9 °F 25% 30.55 in 10.0 mi North 6.9 mph - N/A   Clear
3:53 PM 37.9 °F 31.5 °F 5.0 °F 25% 30.53 in 10.0 mi NNE 9.2 mph - N/A   Clear
4:53 PM 35.1 °F 31.0 °F 6.1 °F 30% 30.53 in 10.0 mi NNE 4.6 mph - N/A   Clear
5:53 PM 33.1 °F 30.0 °F 7.0 °F 34% 30.53 in 10.0 mi North 3.5 mph - N/A   Clear
6:53 PM 32.0 °F 28.7 °F 8.1 °F 37% 30.55 in 10.0 mi North 3.5 mph - N/A   Clear
7:53 PM 30.0 °F 26.5 °F 9.0 °F 41% 30.56 in 10.0 mi NE 3.5 mph - N/A   Clear
8:53 PM 30.0 °F 26.5 °F 9.0 °F 41% 30.55 in 10.0 mi North 3.5 mph - N/A   Clear
9:53 PM 28.9 °F - 10.0 °F 45% 30.55 in 10.0 mi Calm Calm - N/A   Clear
10:53 PM 26.1 °F - 16.0 °F 66% 30.54 in 10.0 mi Calm Calm - N/A   Clear
11:53 PM 26.1 °F - 16.0 °F 66% 30.52 in 10.0 mi Calm Calm - N/A   Clear